CT2IRK-11 Weather Reports


time (UTC)temp
C
wind
direction
speed
KPH
gust
KPH
rain 1hr
cm
rain 24hr
cm
rain mn
cm
humidity
%
barometer
mb
20260508000005 14 227 0.0 0.0 0.00 0.00 0.00 80 1003.3
20260507235005 14 137 0.0 0.0 0.00 0.00 0.00 80 1003.3
20260507234005 14 217 0.0 0.0 0.00 0.00 0.00 81 1003.4
20260507233005 14 232 0.0 0.0 0.00 0.00 0.00 80 1003.4
20260507232006 14 320 0.0 0.0 0.00 0.00 0.00 81 1003.5
20260507231005 14 22 0.0 0.0 0.00 0.00 0.00 79 1003.6
20260507230006 14 35 0.0 0.0 0.00 0.00 0.00 79 1003.9
20260507225005 14 274 0.0 0.0 0.00 0.00 0.00 79 1003.9
20260507223005 14 270 3.2 8.0 0.00 0.00 0.00 78 1004.0
20260507222005 14 290 3.2 8.0 0.00 0.00 0.00 78 1004.0
20260507221005 14 269 1.6 9.7 0.00 0.00 0.00 78 1004.1
20260507215005 15 248 0.0 0.0 0.00 0.00 0.00 77 1004.2
20260507214005 15 303 0.0 0.0 0.00 0.00 0.00 76 1004.2
20260507213005 15 240 0.0 0.0 0.00 0.00 0.00 75 1004.4
20260507212005 15 287 0.0 0.0 0.00 0.00 0.00 74 1004.3
20260507211005 15 270 0.0 1.6 0.00 0.00 0.00 73 1004.2
20260507210007 15 265 4.8 4.8 0.00 0.00 0.00 73 1004.1
20260507205005 15 270 4.8 11.3 0.00 0.00 0.00 72 1004.0
20260507203005 15 270 0.0 0.0 0.00 0.00 0.00 71 1003.7
20260507202006 16 270 0.0 0.0 0.00 0.00 0.00 70 1003.6
20260507200005 16 293 0.0 0.0 0.00 0.00 0.00 68 1003.5
20260507195005 16 341 3.2 11.3 0.00 0.03 0.00 67 1003.4
20260507194006 16 280 4.8 9.7 0.00 0.03 0.00 66 1003.4
20260507193005 16 336 1.6 11.3 0.00 0.03 0.00 66 1003.3
20260507192005 16 288 3.2 12.9 0.00 0.03 0.00 66 1003.2
20260507191005 17 256 9.7 12.9 0.00 0.03 0.00 65 1003.1
20260507190006 17 248 8.0 14.5 0.00 0.03 0.00 64 1003.1
20260507185005 17 283 12.9 16.1 0.00 0.03 0.00 63 1003.0
20260507184005 17 273 11.3 16.1 0.00 0.03 0.00 62 1002.9
20260507183005 17 292 12.9 19.3 0.00 0.03 0.00 61 1002.8
20260507182005 17 258 19.3 24.1 0.00 0.03 0.00 61 1002.6
20260507181005 18 270 16.1 22.5 0.00 0.03 0.00 61 1002.4
20260507180005 18 272 19.3 25.7 0.00 0.03 0.00 59 1002.2
20260507175005 18 268 19.3 25.7 0.00 0.03 0.00 58 1002.1
20260507174005 19 271 20.9 22.5 0.00 0.03 0.00 57 1002.1
20260507173007 20 270 19.3 25.7 0.00 0.03 0.00 56 1002.0
20260507171006 20 261 17.7 22.5 0.00 0.03 0.00 53 1001.9
20260507170005 22 225 16.1 16.1 0.00 0.03 0.00 47 1001.8
20260507165006 22 270 16.1 20.9 0.00 0.03 0.00 47 1001.7
20260507164005 22 327 11.3 19.3 0.00 0.03 0.00 47 1001.6
20260507163005 22 273 14.5 20.9 0.00 0.03 0.00 45 1001.5
20260507161005 23 287 14.5 20.9 0.00 0.03 0.00 40 1001.5
20260507160008 23 233 14.5 20.9 0.00 0.03 0.00 39 1001.5
20260507155008 23 253 12.9 19.3 0.00 0.03 0.00 40 1001.6
20260507154017 23 171 4.8 19.3 0.00 0.03 0.00 39 1001.6
20260507153005 24 232 14.5 22.5 0.00 0.03 0.00 37 1001.6
20260507152006 25 237 4.8 19.3 0.00 0.03 0.00 36 1001.9
20260507151005 23 270 8.0 16.1 0.00 0.03 0.00 38 1002.0
20260507150006 22 247 11.3 16.1 0.00 0.03 0.00 40 1002.2
20260507145014 23 250 12.9 19.3 0.00 0.03 0.00 38 1002.2
20260507144006 25 261 16.1 20.9 0.00 0.03 0.00 36 1002.2
20260507143008 25 7 4.8 9.7 0.00 0.03 0.00 35 1002.2
20260507142005 25 236 9.7 20.9 0.00 0.03 0.00 34 1002.5
20260507141007 25 236 14.5 19.3 0.00 0.03 0.00 35 1002.5
20260507140006 23 270 11.3 16.1 0.00 0.03 0.00 38 1002.6
20260507134005 23 305 6.4 14.5 0.00 0.03 0.00 37 1002.7
20260507133005 23 231 9.7 19.3 0.00 0.03 0.00 37 1002.7
20260507132005 22 260 11.3 22.5 0.00 0.03 0.00 40 1002.8
20260507131005 23 293 4.8 14.5 0.00 0.03 0.00 38 1002.9
20260507130004 24 276 4.8 12.9 0.00 0.03 0.00 35 1002.8
20260507125005 25 249 8.0 16.1 0.00 0.03 0.00 34 1002.9
20260507124005 25 259 6.4 16.1 0.00 0.03 0.00 35 1003.0
20260507122005 21 270 8.0 12.9 0.00 0.03 0.00 44 1003.5
20260507121005 22 270 14.5 20.9 0.00 0.03 0.00 43 1003.5
20260507120005 25 252 3.2 14.5 0.00 0.03 0.00 36 1003.6
20260507114005 23 202 9.7 19.3 0.00 0.03 0.00 38 1003.8
20260507113006 22 182 9.7 12.9 0.00 0.03 0.00 39 1003.7
20260507112005 24 248 0.0 16.1 0.00 0.03 0.00 38 1003.6
20260507111005 25 233 4.8 14.5 0.00 0.03 0.00 37 1003.6
20260507110005 22 323 6.4 11.3 0.00 0.03 0.00 43 1003.8
20260507105005 22 275 4.8 14.5 0.00 0.03 0.00 45 1003.7
20260507104005 23 225 6.4 9.7 0.00 0.03 0.00 41 1003.7
20260507103005 23 280 0.0 1.6 0.00 0.03 0.00 43 1003.7
20260507102007 21 63 0.0 0.0 0.00 0.03 0.00 50 1003.7
20260507101005 22 338 0.0 11.3 0.00 0.03 0.00 47 1003.7
20260507100005 24 292 0.0 0.0 0.00 0.03 0.00 43 1003.8
20260507095005 24 55 0.0 0.0 0.00 0.03 0.00 44 1003.9
20260507094006 25 270 0.0 0.0 0.00 0.03 0.00 41 1003.9
20260507093005 21 104 0.0 8.0 0.00 0.03 0.00 50 1003.8
20260507092005 21 8 1.6 9.7 0.00 0.03 0.00 51 1003.9
20260507091005 24 256 0.0 0.0 0.00 0.03 0.00 44 1003.8
20260507090005 22 111 0.0 0.0 0.00 0.03 0.00 46 1003.7
20260507085005 22 257 0.0 0.0 0.00 0.03 0.00 49 1003.7
20260507083005 22 112 0.0 0.0 0.00 0.03 0.00 53 1003.6
20260507082004 20 108 0.0 0.0 0.00 0.03 0.00 60 1003.7
20260507081005 19 127 0.0 0.0 0.00 0.03 0.00 63 1003.7
20260507080005 17 173 0.0 3.2 0.00 0.03 0.00 68 1003.8
20260507074005 15 202 8.0 11.3 0.00 0.03 0.00 78 1004.0
20260507072005 14 215 0.0 8.0 0.00 0.03 0.00 79 1003.6
20260507071004 13 188 1.6 3.2 0.00 0.03 0.00 84 1003.4
20260507065005 12 211 0.0 1.6 0.00 0.03 0.00 84 1003.3
20260507064005 12 195 0.0 4.8 0.00 0.03 0.00 87 1003.2
20260507063005 11 190 1.6 4.8 0.00 0.03 0.00 90 1003.2
20260507062005 10 187 0.0 1.6 0.00 0.03 0.00 92 1002.9
20260507060004 9 190 0.0 0.0 0.00 0.03 0.00 98 1002.7
20260507055005 10 192 0.0 0.0 0.00 0.03 0.00 99 1002.6
20260507054004 10 180 0.0 0.0 0.00 0.03 0.00 96 1002.5
20260507053005 10 112 0.0 0.0 0.00 0.03 0.00 96 1002.7
20260507052005 10 158 0.0 0.0 0.00 0.03 0.00 97 1002.7
20260507051006 10 112 0.0 0.0 0.00 0.03 0.00 98 1002.7
20260507050006 10 113 0.0 0.0 0.00 0.03 0.00 98 1002.9
20260507045006 10 99 0.0 0.0 0.00 0.03 0.00 96 1002.9
20260507044006 10 137 0.0 0.0 0.00 0.03 0.00 95 1003.0
20260507042006 10 202 0.0 0.0 0.00 0.03 0.00 95 1003.2
20260507041005 10 119 0.0 0.0 0.00 0.03 0.00 95 1003.3
20260507035005 10 123 0.0 0.0 0.00 0.03 0.00 94 1003.4
20260507034005 11 124 0.0 0.0 0.00 0.03 0.00 93 1003.4
20260507033006 11 170 0.0 0.0 0.00 0.03 0.00 93 1003.4
20260507032005 11 315 0.0 0.0 0.00 0.03 0.00 93 1003.4
20260507031006 11 123 0.0 0.0 0.00 0.03 0.00 92 1003.4
20260507025005 11 178 0.0 0.0 0.00 0.03 0.00 92 1003.5
20260507024006 11 180 0.0 0.0 0.00 0.03 0.00 92 1003.5
20260507023007 11 202 0.0 0.0 0.00 0.03 0.00 92 1003.6
20260507022006 12 202 0.0 0.0 0.00 0.03 0.00 93 1003.6
20260507021005 12 45 0.0 0.0 0.00 0.03 0.00 93 1003.6
20260507020005 12 12 0.0 0.0 0.00 0.03 0.00 90 1003.7
20260507015006 12 304 0.0 1.6 0.00 0.03 0.00 90 1003.8
20260507013005 13 56 1.6 9.7 0.00 0.03 0.00 88 1003.8
20260507012006 13 56 1.6 3.2 0.00 0.03 0.00 88 1003.9
20260507011005 13 66 0.0 1.6 0.00 0.03 0.00 88 1003.8
20260507005005 13 57 0.0 1.6 0.00 0.03 0.00 88 1004.2
20260507004005 13 35 0.0 0.0 0.00 0.03 0.00 88 1004.2
20260507003006 13 22 0.0 0.0 0.00 0.03 0.00 88 1004.2
20260507002005 13 56 0.0 0.0 0.00 0.03 0.00 87 1004.4
20260507001006 13 352 0.0 1.6 0.00 0.03 0.00 86 1004.4